Regional Weather Roundup
Issued by NWS

Home | Current Version | Previous Version | Graphics & Text | Print | Product List | Glossary On
Versions: 1 2 3 4 5 6 7 8 9 10 11 12 13 14 15 16 17 18 19 20 21 22 23 24 25 26 27
000
ASUS45 KCYS 171310
RWRWY

WYOMING REGIONAL WEATHER ROUNDUP
NATIONAL WEATHER SERVICE CHEYENNE WY
700 AM MDT THU AUG 17 2017

NOTE:  "FAIR" INDICATES FEW OR NO CLOUDS BELOW 12,000 FEET
WITH NO SIGNIFICANT WEATHER AND/OR OBSTRUCTIONS TO VISIBILITY.

WYZ001-171400-
YELLOWSTONE NATIONAL PARK

CITY           SKY/WX    TMP DP  RH WIND       PRES   REMARKS
LK YELLOWSTONE   N/A     41  40  96 NW3       30.29R
W YELLOWSTONE  NOT AVBL

$$
WYZ002>013-054>058-071-098>099-171400-
NORTHERN WYOMING

CITY           SKY/WX    TMP DP  RH WIND       PRES   REMARKS
JACKSON        FAIR      37  33  85 NE6       30.23R WCI  32
CODY           MOCLDY    59  41  51 CALM      30.09R
GREYBULL       FAIR      57  43  59 SW3       30.01R
WORLAND        FAIR      51  43  74 SE7       30.02R
SHERIDAN       FAIR      61  45  55 N5        29.99R
BUFFALO        FAIR      65  37  35 SW6       30.05R
GILLETTE       FAIR      65  39  38 W9        29.99R
HULETT         FAIR      66  41  39 SW12      30.00R
NEWCASTLE      FAIR      55  45  67 CALM      30.03S

$$
WYZ014>020-022>026-101>103-171400-
CENTRAL WYOMING

CITY           SKY/WX    TMP DP  RH WIND       PRES   REMARKS
BIG PINEY      FAIR      37  34  89 E3        30.28R
PINEDALE       FAIR      36  34  93 W6        30.29R WCI  31
DUBOIS         FAIR      45  32  61 NW14      30.24R
LANDER           N/A    N/A N/A N/A MISG      30.12R
RIVERTON       FAIR      58  36  43 W13       30.12R
CASPER         FAIR      61  44  53 SW10      30.10R
DOUGLAS        FAIR      54  50  86 CALM      30.08S

$$
WYZ021-027>030-104>119-171400-
SOUTHERN WYOMING

CITY           SKY/WX    TMP DP  RH WIND       PRES   REMARKS
EVANSTON       FAIR      51  35  54 S8        30.28R
KEMMERER         N/A     45  36  70 N13       30.29R
FORT BRIDGER   FAIR      58  32  37 W12       30.30R
ROCK SPRINGS   FAIR      55  37  50 CALM      30.26R
RAWLINS        FAIR      50  40  68 VRB3      30.24R
SARATOGA       FAIR      52  41  66 S14       30.28R
LARAMIE        MOCLDY    47  40  76 SE9       30.25S
CHEYENNE       FAIR      53  43  68 W3        30.18R
TORRINGTON     FAIR      54  50  86 E6        30.05R
PINE BLUFFS    FAIR      50  48  93 CALM      30.14S

$$




USA.gov is the U.S. government's official web portal to all federal, state and local government web resources and services.